[Iaude] MPEC D67: 2024 DS [a=1.54,e=0.46,i=6.1,H=25.9]

mpec at cfa.harvard.edu mpec at cfa.harvard.edu
Mon Feb 19 09:25:21 EST 2024


M.P.E.C. 2024-D67                             Issued 2024 February 19, 14:23 UT

     The Minor Planet Electronic Circulars contain information on unusual
         minor planets, routine data on comets and natural satellites,
         and occasional editorial announcements.  They are published
    on behalf of Division F of the International Astronomical Union by the
          Minor Planet Center, Smithsonian Astrophysical Observatory,
                          Cambridge, MA 02138, U.S.A.
			  
             Prepared using the Tamkin Foundation Computer Network

                              MPC at CFA.HARVARD.EDU
            URL https://www.minorplanetcenter.net/    ISSN 1523-6714

                                    2024 DS                                     


Observations:
     K24D00S*1C2024 02 17.22805410 10 02.608+39 47 37.97         21.25GVED067G96
     K24D00S 1C2024 02 17.23369810 10 03.443+39 47 13.70         20.95GVED067G96
     K24D00S 1C2024 02 17.23936210 10 04.292+39 46 49.15         21.00GVED067G96
     K24D00S 1C2024 02 17.24501510 10 05.110+39 46 24.78         22.16GVED067G96
     K24D00S  C2024 02 17.28658110 10 10.269+39 43 21.67         20.7 GVED067H01
     K24D00S  C2024 02 17.29369810 10 11.250+39 42 50.06         20.8 GVED067H01
     K24D00S  C2024 02 17.30907910 10 13.317+39 41 41.70         21.0 GVED067H01
     K24D00S  C2024 02 17.31235310 10 13.750+39 41 26.91         21.0 GVED067H01
     K24D00S KC2024 02 17.33928710 10 17.886+39 39 29.74         21.47GVED067V06
     K24D00S KC2024 02 17.34233510 10 18.304+39 39 16.20         21.35GVED067V06
     K24D00S KC2024 02 17.34538710 10 18.718+39 39 02.41         21.19GVED067V06
     K24D00S KC2024 02 17.34844510 10 19.110+39 38 48.48         21.73GVED067V06
     K24D00S KC2024 02 18.31943010 13 04.681+38 32 14.53         21.56GVED067I52
     K24D00S KC2024 02 18.32483710 13 05.300+38 31 53.54         21.07GVED067I52
     K24D00S KC2024 02 18.33025810 13 05.776+38 31 33.82         21.71GVED067I52
     K24D00S KC2024 02 19.22422710 15 12.06 +37 38 16.3          21.6 GVED067H21
     K24D00S KC2024 02 19.22855710 15 15.190+37 38 06.30         21.66GVED067V06
     K24D00S KC2024 02 19.23251110 15 12.77 +37 37 48.9          21.6 GVED067H21
     K24D00S KC2024 02 19.23549710 15 13.04 +37 37 38.9          21.6 GVED067H21
     K24D00S KC2024 02 19.23933210 15 16.170+37 37 32.70         21.47GVED067V06

Observer details:
G96 Mt. Lemmon Survey.  Observers T. Beuden, J. K. Hogan.  Measurers T.
    Beuden, V. F. Carvajal, D. Fay, J. B. Fazekas, D. C. Fuls, A. R. Gibbs, A.
    D. Grauer, H. Groeller, J. K. Hogan, R. A. Kowalski, S. M. Larson, G. J.
    Leonard, D. Rankin, R. L. Seaman, F. C. Shelly, K. W. Wierzchos.  1.5-m
    reflector + 10K CCD.
H01 Magdalena Ridge Observatory, Socorro.  Observers W. H. Ryan, E. V. Ryan.
    Measurer W. H. Ryan.  2.4-m f/8.9 Ritchey-Chretien + CCD.
H21 Astronomical Research Observatory, Westfield.  Observer R. Holmes.
    Measurers T. Linder, R. Holmes, L. Horn.  1.3-m f/4.0 astrograph + CCD.
I52 Steward Observatory, Mt. Lemmon Station.  Observer J. B. Fazekas.
    Measurers E. C. Beshore, D. Fay, J. B. Fazekas, D. C. Fuls, A. R. Gibbs,
    A. D. Grauer, H. Groeller, J. K. Hogan, R. A. Kowalski, S. M. Larson, G.
    J. Leonard, D. Rankin, R. L. Seaman, F. C. Shelly, K. W. Wierzchos.  1.0-m
    prime focus + CCD.
V06 Catalina Sky Survey-Kuiper.  Observer J. B. Fazekas.  Measurers T. Beuden,
    V. F. Carvajal, D. Fay, J. B. Fazekas, D. C. Fuls, A. R. Gibbs, A. D.
    Grauer, H. Groeller, J. K. Hogan, R. A. Kowalski, S. M. Larson, G. J.
    Leonard, D. Rankin, R. L. Seaman, F. C. Shelly, K. W. Wierzchos.  1.55-m
    reflector + 1K CCD.

Orbital elements:
2024 DS                                                  Earth MOID = 0.0109 AU
Epoch 2024 Mar. 31.0 TT = JDT 2460400.5                 Veres                   
M  49.80404              (2000.0)            P               Q                  
n   0.51717233     Peri.  305.42832     +0.24209404     -0.96691943             
a   1.5371368      Node   130.35697     +0.92087148     +0.20289784             
e   0.4630989      Incl.    6.05322     +0.30559155     +0.15459390             
P   1.91           H   25.93          G   0.15           U   8                  
Residuals in seconds of arc
240217 G96  0.3-  0.3-    240217 H01  0.1-  0.0     240218 I52  0.3-  0.4+
240217 G96  0.1-  0.3-    240217 V06  0.1-  0.0     240219 H21  0.0   0.2+
240217 G96  0.3+  0.4-    240217 V06  0.1+  0.2+    240219 V06  0.1-  0.1-
240217 G96  0.4+  0.3-    240217 V06  0.2+  0.1+    240219 H21  0.1-  0.0
240217 H01  0.1-  0.2+    240217 V06  0.0   0.0     240219 H21  0.0   0.2-
240217 H01  0.1+  0.1+    240218 I52  0.2-  0.1-    240219 V06  0.2+  0.3+
240217 H01  0.0   0.2+    240218 I52  0.6+  0.5-

Ephemeris:
2024 DS                  a,e,i = 1.54, 0.46, 6                   q = 0.8253
Date    TT    R. A. (2000) Decl.     Delta      r    Elong.  Phase     V
2024 01 20    22 47 00.8 -20 24 58   0.1291  0.8856    37.9   137.0    27.7
...
2024 02 04    23 38 50.3 +09 01 26   0.02785 0.9663    45.4   133.4    24.1
...
2024 02 12    09 30 02.7 +51 37 36   0.03811 1.0175   142.4    36.3    20.4
...
2024 02 18    10 12 14.1 +38 52 52   0.07787 1.0581   153.0    25.1    21.7
2024 02 19    10 14 41.3 +37 51 03   0.08482 1.0651   153.7    24.2    21.8
2024 02 20    10 16 42.7 +36 57 28   0.09182 1.0720   154.3    23.6    22.0
...
2024 02 26    10 23 56.6 +33 17 31   0.1351  1.1144   155.7    21.4    22.9
...
2024 03 05    10 28 28.1 +30 22 45   0.1963  1.1719   154.4    21.5    23.8
...
2024 03 20    10 34 59.8 +26 31 12   0.3250  1.2804   146.9    25.1    25.2

M. P. C. Staff               (C) Copyright 2024 MPC           M.P.E.C. 2024-D67





More information about the Iaude mailing list